Regional Weather Roundup
Issued by NWS

Home | Current Version | Previous Version | Text Only | Print | Product List | Glossary Off
Versions: 1 2 3 4 5 6 7 8 9 10 11 12 13 14 15 16 17 18 19 20 21 22 23 24 25 26 27 28 29 30 31 32 33 34 35 36 37 38 39 40 41 42 43 44 45 46 47 48 49 50

000
ASUS43 KLOT 291612
RWRIL

ILLINOIS REGIONAL WEATHER ROUNDUP
NATIONAL WEATHER SERVICE CHICAGO/ROMEOVILLE IL
1100 AM CDT SAT AUG 29 2015

NOTE: "FAIR" INDICATES FEW OR NO CLOUDS BELOW 12,000 FEET WITH NO
SIGNIFICANT WEATHER AND/OR OBSTRUCTIONS TO VISIBILITY.

* THESE STATIONS ARE NOT UNDER NWS QUALITY CONTROL. THEY ALSO MAY NOT
  REPORT WEATHER SUCH AS PRECIPITATION OR FOG.

ILZ001-002-007-009-015-016-024-291700-
NORTHWEST ILLINOIS

CITY           SKY/WX    TMP DP  RH WIND       PRES   REMARKS
MOLINE         CLOUDY    70  65  84 CALM      30.01R
STERLING*      CLOUDY    66  64  94 E3        30.00S
SAVANNA*       CLOUDY    69  65  88 SE3       30.01S
$$

ILZ003-004-008-010-011-017-018-291700-
NORTH CENTRAL ILLINOIS

CITY           SKY/WX    TMP DP  RH WIND       PRES   REMARKS
ROCKFORD       CLOUDY    66  62  87 SE5       30.04S
FREEPORT*      CLOUDY    64  64  97 SE6       30.04S FOG
ROCHELLE*      CLOUDY    65  64  96 SE3       30.03S
DE KALB*       HVY RAIN  64  63  97 SE5       30.04S
PERU*          CLOUDY    71  64  79 S3        30.03R THUNDER
$$

ILZ005-006-012>014-019>023-291700-
NORTHEAST ILLINOIS

CITY           SKY/WX    TMP DP  RH WIND       PRES   REMARKS
CHICAGO-OHARE  CLOUDY    67  64  90 E6        30.04R
CHICAGO-MIDWAY CLOUDY    70  63  78 SE6       30.04S
AURORA         CLOUDY    68  64  87 SE3       30.05R FOG
LANSING*       CLOUDY    68  64  88 SE6       30.05S
JOLIET*        CLOUDY    70  66  87 S5        30.03F
WAUKEGAN       CLOUDY    63  62  97 E7        30.04S FOG
DUPAGE AIRPORT LGT RAIN  66  63  90 E5        30.04R FOG
KANKAKEE*      CLOUDY    69  66  91 SW3       30.07R
WHEELING       HVY RAIN  65  63  93 SE5       30.06R FOG
MORRIS*        CLOUDY    70  65  84 S5        30.03R
ROMEOVILLE*    CLOUDY    69  64  83 S9        30.04S
NORTHERLY ISL    N/A     65  62  90 SE2         N/A
$$

LMZ740>746-291700-
SOUTHERN LAKE MICHIGAN

STATION/POSITION SKY/WX   TEMP    WIND        PRES    VSBY  WAVE
                          AIR SEA DIR/SP/G                  HT/PER
                          (F)     (DEG/KT/KT) (MB)    (MI)  (FT/S)
SOUTHERN BUOY              66 68  130/ 12/ 14 1017.6S         2/ 4
WILMETTE HARBOR            61 56  320/  8/ 10   N/A           1/ 3
HARRISON CRIB              66     130/ 15/ 17   N/A
BURNHAM HARBOR             65     160/  1/  7   N/A
BURNS HARBOR               67     120/  7/ 11 1018.6F
MICHIGAN CITY              64      60/  8/  9   N/A
MICHIGAN CITY 6N           67 70  130/ 10/ 12   N/A           1
ST. JOSEPH                 66 70  200/  8/ 12   N/A           1
$$

ILZ025>027-034>036-040-047-049-050-058-095>099-291700-
WEST-CENTRAL ILLINOIS

CITY           SKY/WX    TMP DP  RH WIND       PRES   REMARKS
QUINCY         SUNNY     77  65  66 SW10      30.00S
GALESBURG*     CLOUDY    71  65  81 SW3       30.01S
MACOMB*        PTSUNNY   74  65  73 SW5       30.03R
JACKSONVILLE*  PTSUNNY   76  68  76 S8        30.02S
PITTSFIELD*    MOSUNNY   78  65  65 SW9       30.02S HX  80
$$

ILZ028>032-037-038-041>044-048-051>054-059>061-291700-
CENTRAL ILLINOIS

CITY           SKY/WX    TMP DP  RH WIND       PRES   REMARKS
PONTIAC        CLOUDY    73  67  81 S10       30.04S
BLOOMINGTON    CLOUDY    75  68  79 SW10      30.05S
DECATUR        CLOUDY    75  65  70 SW9       30.05R
PEORIA         PTSUNNY   78  65  63 SW9       30.02R HX  80
LACON*         MOSUNNY   73  64  73 SW7       30.01R
LINCOLN*       CLOUDY    75  67  75 S6        30.03S
SPRINGFIELD    CLOUDY    77  66  68 S10       30.02S
TAYLORVILLE    CLOUDY    73  68  83 S5        30.04S
$$

ILZ033-039-045-046-055>057-062-063-291700-
EAST-CENTRAL ILLINOIS

CITY           SKY/WX    TMP DP  RH WIND       PRES   REMARKS
CHAMPAIGN      CLOUDY    77  66  68 S6        30.06R
RANTOUL*       CLOUDY    75  68  77 SE5       30.06S
MATTOON        CLOUDY    76  65  68 S7        30.06R
PARIS*         CLOUDY    78  68  71 S9        30.08R HX  80
$$

ILZ079-100>102-291700-
SOUTHWEST ILLINOIS

CITY           SKY/WX    TMP DP  RH WIND       PRES   REMARKS
ALTON          CLOUDY    75  66  73 S10       30.03S
BELLEVILLE     CLOUDY    76  70  80 VRB5      30.03S
CAHOKIA*       CLOUDY    78  64  61 SW9       30.04S HX  80
SPARTA*        CLOUDY    78  68  73 S9        30.06F
$$

ILZ064>066-069>071-074>076-080>082-084>086-088>090-092>094-291700-
SOUTH-CENTRAL ILLINOIS

CITY           SKY/WX    TMP DP  RH WIND       PRES   REMARKS
CARBONDALE     CLOUDY    78  69  73 S7        30.07R HX  80
CAIRO*         PTSUNNY   80  74  83 S7        30.09R HX  84
EFFINGHAM*     CLOUDY    78  64  61 S5        30.08S HX  80
MARION         CLOUDY    77  70  78 S8        30.09R
MT. VERNON     CLOUDY    79  66  65 S9        30.08S HX  81
SALEM*         CLOUDY    79  68  67 S10       30.06S HX  81
METROPOLIS*    PTSUNNY   81  75  82 CALM      30.10S HX  86
$$

ILZ067-068-072-073-078-083-087-091-291700-
SOUTHEAST ILLINOIS

CITY           SKY/WX    TMP DP  RH WIND       PRES   REMARKS
LAWRENCEVILLE  PTSUNNY   80  68  66 S10       30.09R HX  83
FLORA*         PTSUNNY   76  67  72 S9        30.07S
FAIRFIELD*     CLOUDY    77  69  75 S6        30.07S
HARRISBURG*    CLOUDY    77  70  80 S7        30.09S
ROBINSON*      PTSUNNY   79  68  70 S7        30.09R HX  81
CARMI*         CLOUDY    80  73  78 S9        30.08S HX  84
$$

ABBREVIATIONS USED IN REMARKS
   TC - TEMPERATURE IN CELSIUS
  WCI - WIND CHILL INDEX
   HX - HEAT INDEX
  VSB - VISIBILITY
$$



USA.gov is the U.S. government's official web portal to all federal, state and local government web resources and services.